Flag for Canada Weather past 2 weeks in Drummondville, Quebec, Canada

Now
69 °F

Mild.


Feels Like: 69 °F
Forecast: 62 / 77 °F
Wind: 6 mph from Northwest

Location: Nicolet

Current Time: Aug 27, 2014 at 11:12:45 AM

Latest Report: Aug 27, 2014 at 9:00 AM


Visibility: N/A

Pressure: 29.90 "Hg

Humidity: 75%

Dew point: 60 °F

Location of DrummondvilleLocation

Historic Weather in Drummondville — Graph

°F

Drummondville temperature yesterday

Maximum temperature yesterday: 82 °F (at 4:00 PM)
Minimum temperature yesterday: 61 °F (at 5:00 AM)
Average temperature yesterday: 75 °F

Past Weeks' High & Low Weather Summary

 TemperatureHumidityPressure
High82 °F (Aug 12, 1:00 PM)100% (Aug 16, 6:00 AM)30.17 "Hg (Aug 16, 6:00 AM)
Low48 °F (Aug 19, 6:00 AM)45% (Aug 12, 3:00 PM)29.63 "Hg (Aug 14, 5:00 AM)
Average64 °F82%29.93 "Hg
* Reported Aug 12 9:00 AM — Aug 27 9:00 AM, Drummondville, Weather by CustomWeather, © 2014

Note: Actual official high and low records may vary slightly from our data, if they occured in-between our weather recording intervals... More about our weather records

Advertising

Drummondville weather history for previous 24 hours

 ConditionsComfort  
Time TempWeatherWind HumidityBarometerVisibility
9:00 AM
Aug 27
69 °FMild.6 mph75%29.90 "HgN/A
8:00 AM68 °FMild.3 mph80%29.90 "HgN/A
6:00 AM69 °FMild.6 mph90%29.86 "HgN/A
5:00 AM70 °FMild.7 mph89%29.85 "HgN/A
4:00 AM70 °FMild.6 mph91%29.83 "HgN/A
3:00 AM70 °FMild.7 mph89%29.83 "HgN/A
2:00 AM69 °FMild.5 mph94%29.84 "HgN/A
12:00 AM74 °FMild.7 mph76%29.85 "HgN/A
10:00 PM
Aug 26
72 °FMild.5 mph78%29.88 "HgN/A
9:00 PM71 °FMild.5 mph81%29.88 "HgN/A
8:00 PM74 °FMild.6 mph73%29.88 "HgN/A
7:00 PM76 °FMild.9 mph68%29.90 "HgN/A
6:00 PM80 °FWarm.10 mph60%29.91 "HgN/A
5:00 PM81 °FWarm.14 mph55%29.93 "HgN/A
4:00 PM82 °FWarm.12 mph54%29.95 "HgN/A
3:00 PM81 °FWarm.15 mph55%29.98 "HgN/A
2:00 PM81 °FWarm.15 mph57%29.99 "HgN/A
1:00 PM80 °FWarm.12 mph57%30.01 "HgN/A
12:00 PM79 °FWarm.10 mph65%30.03 "HgN/A
11:00 AM77 °FWarm.8 mph71%30.04 "HgN/A
Weather by CustomWeather, © 2014

See weather overviewHow to use our weather pages